[[{"header":{"parameterUnit":"m.s-1","parameterCategory":1,"la1":30.2991,"la2":30.254,"lo1":-89.0895,"lo2":-89.0444,"dy":0.0017,"dx":0.0017,"nx":28,"ny":28,"refTime":"2023-09-23T09:00:00:Z","depth":0,"parameterNumber":2,"parameterNumberName":"U-component_of_WINDS"},"data":[0,0,0,0,0,0,0,0,0,0,0,0,0,0,0,0,0,0,0,0,0,0,0,0,0,0,0,0,0,0,0,0,0,0,0,0,0,0,0,0,0,0,0,0,0,0,0,0,0,0,0,0,0,0,0,0,0,0,-1.8454,-1.8454,0,-1.8478,-1.8478,-1.8478,-1.8427,-1.8426,-1.8424,-1.8422,-1.8448,-1.845,-1.8452,0,0,0,0,0,0,0,0,0,0,0,0,0,-1.8364,-1.8366,-1.8454,-1.8454,-1.8454,-1.8478,-1.8478,-1.8478,-1.8428,-1.8425,-1.8423,-1.8422,-1.8447,-1.845,-1.8452,0,0,0,0,0,0,0,0,0,0,0,0,0,-1.8397,-1.8367,-1.8454,-1.8432,-1.843,-1.8478,-1.8478,-1.8478,-1.8428,-1.8425,-1.8423,-1.8421,-1.8446,-1.8449,-1.8453,-1.8523,0,0,-1.8463,-1.8464,0,0,0,0,0,0,0,0,-1.8396,-1.8401,-1.8435,-1.8433,-1.8431,-1.8447,-1.8456,-1.8493,-1.8429,-1.8429,-1.8422,-1.8419,-1.8449,-1.8452,-1.8462,-1.8524,-1.8525,-1.8463,-1.8465,-1.8467,-1.8467,0,0,0,0,0,0,0,-1.8393,-1.8399,-1.8463,-1.8435,-1.8433,-1.8421,-1.8423,-1.8463,-1.8453,-1.8429,-1.8425,-1.8428,-1.8448,-1.8459,-1.8463,-1.8525,-1.8463,-1.8466,-1.8468,-1.8469,-1.8646,-1.8649,0,0,0,0,0,0,-1.8394,-1.8398,-1.8462,-1.8464,-1.8407,-1.8425,-1.8427,-1.8444,-1.8452,-1.8451,-1.843,-1.8426,-1.8455,-1.8459,-1.8463,-1.8546,-1.8466,-1.847,-1.8472,-1.8643,-1.8647,-1.865,0,0,0,0,0,0,-1.8392,-1.84,-1.8461,-1.843,-1.8437,-1.8429,-1.8449,-1.8446,-1.8457,-1.8454,-1.8452,-1.8444,-1.8453,-1.8459,-1.8508,-1.8546,-1.8471,-1.8474,-1.864,-1.8645,-1.8648,-1.8712,0,0,0,0,0,0,-1.839,-1.84,-1.8426,-1.8431,-1.8439,-1.8506,-1.8451,-1.8449,-1.8463,-1.8457,-1.8465,-1.8464,-1.8451,-1.8504,-1.8512,-1.8549,-1.8477,-1.8637,-1.8642,-1.8647,-1.8707,-1.8718,-1.8728,0,0,0,0,0,-1.8387,-1.8443,-1.8428,-1.8436,-1.8471,-1.8508,-1.8513,-1.8497,-1.8466,-1.8493,-1.8491,-1.8464,-1.8541,-1.8509,-1.8518,-1.8557,-1.8634,-1.8641,-1.8647,-1.8702,-1.8716,-1.8728,0,0,0,0,0,0,-1.8443,-1.8444,-1.8426,-1.8486,-1.8498,-1.85,-1.8533,-1.8512,-1.8532,-1.8526,-1.8505,-1.8507,-1.8561,-1.8564,-1.8529,-1.8626,-1.8583,-1.8591,-1.8622,-1.8635,-1.8645,-1.8643,-1.8479,0,0,0,0,0,-1.8463,-1.8493,-1.8491,-1.8544,-1.8551,-1.8541,-1.8556,-1.8543,-1.8554,-1.8559,-1.856,-1.8572,-1.8599,-1.8617,-1.8641,-1.8707,-1.8708,-1.8738,-1.8749,-1.8757,-1.8765,-1.88,-1.8813,-1.867,-1.867,-1.867,0,0,-1.8504,-1.8507,-1.8527,-1.8556,-1.8563,-1.8595,-1.8545,-1.8581,-1.8604,-1.8564,-1.8611,-1.8613,-1.8625,-1.8683,-1.8709,-1.8687,-1.8805,-1.8765,-1.8772,-1.8775,-1.8807,-1.8821,-1.8833,-1.8674,-1.8673,-1.8672,0,0,-1.8594,-1.8599,-1.8644,-1.8653,-1.8664,-1.8657,-1.8668,-1.8674,-1.8673,-1.872,-1.8691,-1.8718,-1.8765,-1.8774,-1.8786,-1.888,-1.8856,-1.8888,-1.8943,-1.8978,-1.8989,-1.8999,-1.9033,-1.9045,-1.8896,-1.8896,-1.8896,0,-1.8643,-1.8689,-1.867,-1.8707,-1.8721,-1.8686,-1.8731,-1.8741,-1.876,-1.877,-1.8745,-1.8803,-1.8809,-1.8869,-1.8892,-1.8902,-1.8914,-1.8887,-1.8989,-1.8999,-1.9008,-1.904,-1.9052,-1.89,-1.8899,-1.8899,-1.8898,0,-1.8749,-1.8781,-1.8816,-1.8835,-1.8853,-1.8894,-1.8882,-1.8902,-1.8887,-1.8882,-1.8931,-1.8936,-1.8961,-1.8975,-1.896,-1.9033,-1.9019,-1.8992,-1.8948,-1.9025,-1.9055,-1.9067,-1.8905,-1.8904,-1.8903,-1.8902,0,0,-1.8876,-1.8884,-1.8897,-1.8905,-1.8916,-1.894,-1.898,-1.9004,-1.9022,-1.9037,-1.907,-1.911,-1.9085,-1.9098,-1.9084,-1.9115,-1.9189,-1.9084,-1.9084,-1.9103,-1.927,-1.929,-1.9305,-1.9174,-1.9176,-1.9178,-1.9269,0,-1.8965,-1.9033,-1.9017,-1.9085,-1.9115,-1.9082,-1.9117,-1.9127,-1.9124,-1.915,-1.9146,-1.9175,-1.914,-1.9148,-1.9176,-1.9174,-1.9222,-1.9167,-1.9204,-1.9206,-1.9203,-1.932,-1.9342,-1.9427,-1.928,-1.9282,-1.9283,0,-1.9078,-1.9097,-1.9168,-1.9173,-1.9185,-1.9216,-1.9237,-1.9262,-1.9273,-1.9269,-1.9283,-1.9264,-1.9304,-1.926,-1.9314,-1.9277,-1.9291,-1.9293,-1.9296,-1.9299,-1.925,-1.9327,-1.9454,-1.9467,-1.9302,-1.93,-1.9299,0,-1.9164,-1.9207,-1.9255,-1.9263,-1.927,-1.9293,-1.9297,-1.9306,-1.9322,-1.934,-1.935,-1.9373,-1.9386,-1.9404,-1.9392,-1.9361,-1.9449,-1.9404,-1.9447,-1.9447,-1.9467,-1.9466,-1.9599,-1.9476,-1.9476,-1.9476,-1.9475,0,-1.9266,-1.9311,-1.9293,-1.9323,-1.9372,-1.9353,-1.9402,-1.9403,-1.9411,-1.944,-1.9413,-1.9441,-1.9423,-1.9449,-1.944,-1.9487,-1.9493,-1.9491,-1.9488,-1.9493,-1.9494,-1.9502,-1.9496,-1.9479,-1.9478,-1.9478,-1.9477,0,-1.937,-1.936,-1.941,-1.9413,-1.9415,-1.9451,-1.9454,-1.9481,-1.9476,-1.9514,-1.9521,-1.9514,-1.9544,-1.9533,-1.9565,-1.9559,-1.9619,-1.9608,-1.9615,-1.9612,-1.9656,-1.9653,-1.98,-1.9819,-1.9683,-1.9685,-1.9686,0,-1.9436,-1.947,-1.9476,-1.9493,-1.95,-1.9528,-1.9544,-1.9527,-1.9544,-1.956,-1.9585,-1.9613,-1.9634,-1.9683,-1.9681,-1.9705,-1.9695,-1.9745,-1.9699,-1.9703,-1.9696,-1.9695,-1.9698,-1.9755,-1.9756,-1.9758,-1.9759,0,-1.9554,-1.9548,-1.9571,-1.9593,-1.9613,-1.9629,-1.9644,-1.9659,-1.9643,-1.9664,-1.9694,-1.9711,-1.9743,-1.9771,-1.9793,-1.9798,-1.9776,-1.9773,-1.9785,-1.9791,-1.9794,-1.9793,-1.9641,-1.977,-1.9769,-1.9768,-1.9767,-1.9767,-1.9642,-1.967,-1.9679,-1.9706,-1.9715,-1.9729,-1.9755,-1.9753,-1.9777,-1.9802,-1.9791,-1.9826,-1.9836,-1.9863,-1.9871,-1.9898,-1.9879,-1.9895,-1.99,-1.9904,-1.991,-1.9789,-1.9902,-1.9902,-1.9902,-1.9901,-1.9901,0,-1.9758,-1.9762,-1.9788,-1.9808,-1.983,-1.9807,-1.9821,-1.9841,-1.9872,-1.9883,-1.9904,-1.9939,-1.9966,-1.9966,-1.999,-2.0012,-2.0003,-2.002,-2.0018,-2.002,-1.9926,-1.9913,-2.0027,-2.0027,-2.0027,-2.0027,-2.0027,-2.0027,-1.9822,-1.9868,-1.9863,-1.9914,-1.9917,-1.9951,-1.9962,-1.9974,-1.9983,-2.0023,-2.0045,-2.0044,-2.0051,-2.0076,-2.01,-2.0099,-2.011,-2.0131,-2.0126,-2.0039,-2.0026,-2.0014,-2.0003,-2.0133,-2.0133,-2.0218,-2.0218,-2.0219]},{"header":{"parameterUnit":"m.s-1","parameterCategory":1,"la1":30.2991,"la2":30.254,"lo1":-89.0895,"lo2":-89.0444,"dy":0.0017,"dx":0.0017,"nx":28,"ny":28,"refTime":"2023-09-23T09:00:00:Z","depth":0,"parameterNumber":3,"parameterNumberName":"V-component_of_WINDS"},"data":[0,0,0,0,0,0,0,0,0,0,0,0,0,0,0,0,0,0,0,0,0,0,0,0,0,0,0,0,0,0,0,0,0,0,0,0,0,0,0,0,0,0,0,0,0,0,0,0,0,0,0,0,0,0,0,0,0,0,3.4527,3.4527,0,3.4539,3.4539,3.4539,3.4497,3.4495,3.4494,3.4493,3.4504,3.4505,3.4507,0,0,0,0,0,0,0,0,0,0,0,0,0,3.4466,3.4467,3.4527,3.4527,3.4527,3.4539,3.4539,3.4539,3.4497,3.4495,3.4494,3.4492,3.4503,3.4505,3.4507,0,0,0,0,0,0,0,0,0,0,0,0,0,3.4487,3.4468,3.4527,3.4508,3.4506,3.4539,3.4539,3.4539,3.4497,3.4495,3.4493,3.4492,3.4503,3.4505,3.4507,3.4558,0,0,3.4514,3.4515,0,0,0,0,0,0,0,0,3.4485,3.4489,3.451,3.4509,3.4507,3.4514,3.4521,3.4545,3.4498,3.45,3.4493,3.4491,3.4509,3.451,3.4517,3.4559,3.4559,3.4514,3.4515,3.4516,3.4517,0,0,0,0,0,0,0,3.4484,3.4488,3.4531,3.4511,3.4509,3.4498,3.4499,3.4526,3.4515,3.45,3.4497,3.4499,3.4507,3.4515,3.4517,3.4559,3.4514,3.4516,3.4517,3.4518,3.4642,3.4644,0,0,0,0,0,0,3.4485,3.4487,3.4531,3.4532,3.4491,3.45,3.4501,3.4514,3.4515,3.4513,3.4501,3.4497,3.4512,3.4514,3.4517,3.4575,3.4516,3.4518,3.4519,3.464,3.4643,3.4645,0,0,0,0,0,0,3.4484,3.449,3.4531,3.4509,3.4513,3.4503,3.4518,3.4515,3.4522,3.4515,3.4513,3.451,3.451,3.4514,3.4548,3.4575,3.4519,3.4521,3.4638,3.4641,3.4644,3.4693,0,0,0,0,0,0,3.4483,3.449,3.4509,3.4509,3.4514,3.4562,3.452,3.4517,3.4526,3.4521,3.4523,3.4522,3.4509,3.4545,3.455,3.4577,3.4523,3.4636,3.4639,3.4643,3.4689,3.4697,3.4704,0,0,0,0,0,3.4481,3.4523,3.4511,3.4516,3.4539,3.4564,3.4566,3.4552,3.4529,3.4548,3.4543,3.4522,3.4572,3.4549,3.4554,3.4582,3.4634,3.4638,3.4643,3.4685,3.4696,3.4704,0,0,0,0,0,0,3.4526,3.4523,3.4509,3.4553,3.4559,3.4557,3.458,3.4563,3.4576,3.4571,3.4552,3.4553,3.459,3.459,3.4564,3.4631,3.4599,3.4604,3.4629,3.4639,3.4646,3.4644,3.4525,0,0,0,0,0,3.4541,3.4562,3.4558,3.4597,3.4601,3.459,3.46,3.4589,3.4594,3.4596,3.4594,3.46,3.4617,3.4628,3.4643,3.469,3.4688,3.4711,3.4719,3.4725,3.473,3.4752,3.4762,3.466,3.466,3.466,0,0,3.4572,3.4573,3.4587,3.4606,3.4609,3.463,3.4593,3.4617,3.4632,3.46,3.4631,3.463,3.4636,3.4675,3.4693,3.4676,3.4758,3.4731,3.4736,3.4737,3.4758,3.4767,3.4776,3.4663,3.4662,3.4662,0,0,3.4639,3.4643,3.4675,3.4679,3.4685,3.4677,3.4685,3.4686,3.4684,3.4715,3.4691,3.4709,3.4739,3.4743,3.4749,3.4818,3.4797,3.4823,3.4863,3.4885,3.4893,3.49,3.4922,3.493,3.4828,3.4828,3.4829,0,3.4677,3.4708,3.4693,3.4719,3.4726,3.4699,3.473,3.4735,3.4746,3.4751,3.4733,3.4769,3.4771,3.481,3.4827,3.4834,3.4841,3.4822,3.4893,3.49,3.4906,3.4927,3.4936,3.4831,3.4831,3.4831,3.483,0,3.4753,3.4775,3.48,3.4811,3.4822,3.485,3.4838,3.4852,3.4839,3.4833,3.4865,3.4867,3.4881,3.489,3.4878,3.4927,3.4917,3.4897,3.4863,3.4919,3.4938,3.4946,3.4835,3.4834,3.4834,3.4833,0,0,3.4848,3.4849,3.4858,3.4862,3.4866,3.4883,3.491,3.4924,3.4934,3.4943,3.4963,3.499,3.497,3.4977,3.4966,3.4986,3.5037,3.4962,3.4962,3.4974,3.5089,3.5102,3.5112,3.5025,3.5026,3.5028,3.5088,0,3.4911,3.4957,3.4944,3.4989,3.5008,3.4983,3.5006,3.5011,3.5006,3.5022,3.5017,3.5035,3.5009,3.5013,3.5032,3.5027,3.5059,3.5023,3.5042,3.5043,3.5039,3.5122,3.5137,3.5193,3.5095,3.5097,3.5098,0,3.4992,3.5003,3.505,3.505,3.5057,3.5078,3.5089,3.5105,3.5109,3.5105,3.5113,3.5097,3.5122,3.5091,3.5125,3.51,3.5107,3.5106,3.5108,3.5107,3.5072,3.5121,3.5211,3.5219,3.511,3.5109,3.5108,0,3.5052,3.5079,3.511,3.5115,3.5116,3.5131,3.5132,3.5135,3.5144,3.5154,3.5159,3.5173,3.5179,3.5189,3.5177,3.5156,3.5212,3.518,3.5207,3.5208,3.5218,3.5217,3.5308,3.5228,3.5228,3.5227,3.5227,0,3.5123,3.5153,3.5137,3.5156,3.5188,3.5173,3.5205,3.5203,3.5206,3.5223,3.5203,3.5219,3.5204,3.5219,3.521,3.5238,3.5242,3.5238,3.5234,3.5238,3.5238,3.5241,3.5235,3.523,3.5229,3.5229,3.5228,0,3.5196,3.5187,3.5219,3.5218,3.5218,3.5241,3.524,3.5256,3.5251,3.5273,3.5278,3.5269,3.5286,3.5276,3.5293,3.5287,3.5323,3.5315,3.5321,3.5318,3.5345,3.5341,3.5438,3.5449,3.5364,3.5365,3.5366,0,3.524,3.5262,3.5263,3.5273,3.5276,3.5293,3.5301,3.5288,3.5298,3.5304,3.532,3.5335,3.5346,3.5374,3.5369,3.5382,3.5373,3.5406,3.5374,3.5377,3.537,3.5368,3.5369,3.5411,3.5412,3.5413,3.5414,0,3.532,3.5314,3.5328,3.534,3.5351,3.536,3.5367,3.5376,3.5362,3.5374,3.5391,3.54,3.5417,3.5431,3.5442,3.5443,3.5425,3.5424,3.5431,3.5433,3.5434,3.5432,3.5335,3.5421,3.5421,3.542,3.542,3.5419,3.5378,3.5395,3.5398,3.5413,3.5417,3.5424,3.5439,3.5436,3.545,3.5462,3.5454,3.5473,3.5476,3.5489,3.5492,3.5506,3.5493,3.5503,3.5505,3.5507,3.5509,3.5434,3.5509,3.5508,3.5508,3.5508,3.5508,0,3.5453,3.5454,3.5469,3.5479,3.5491,3.5475,3.5481,3.5492,3.5509,3.5514,3.5525,3.5544,3.5558,3.5554,3.5567,3.5579,3.5571,3.5582,3.558,3.558,3.5522,3.5514,3.5588,3.5588,3.5588,3.5588,3.5588,3.5588,3.5494,3.5522,3.5517,3.5546,3.5546,3.5565,3.557,3.5576,3.5579,3.5601,3.5612,3.561,3.5611,3.5623,3.5635,3.5633,3.5638,3.5651,3.5647,3.5592,3.5584,3.5576,3.5569,3.5653,3.5653,3.5703,3.5703,3.5704]}]]